星链-34053 (STARLINK-34053)

导读 | 豆包AI

STARLINK-34053是由美国于2025年5月7日发射的星链低轨互联网卫星,隶属于SpaceX星链星座。星链计划旨在搭建全球覆盖的卫星互联网网络,该卫星入轨后,将和其他星链卫星协同工作,为全球偏远地区等区域提供高速互联网接入服务,进一步扩展星链星座的服务覆盖范围与网络容量。

基本信息
目录编号:
63837
目录名称:
STARLINK-34053
国际标识:
2025-093B
轨道中心:
EARTH
卫星名称:
星链-34053
卫星全名:
星链-34053 (STARLINK-34053)
卫星状态:
在轨 (已飞行357 天)
发射日期:
2025-05-07 UTC
国别 :
美国 (US)
星等 :
--
轨道信息
数据来源 国际轨道数据
星历时间: 2026-04-29T10:51:42+0800
14小时前
查看轨道信息
半长轴: 6861.173km
偏心率: 0.0001062
轨道倾角: 42.998°
近地点辐角 267.042°
升交点赤经 153.198°
平近点角 93.031°
近地点: 482.307km
远地点: 483.765km
周期: 94.266分钟
每日圈数: 15.275845
详细信息
固有亮度:
5
最大亮度:
2.5
卫星平台:
Starlink V1.0
覆盖范围:
全球
运营商:
太空探索技术公司
运营商所在国:
美国
制造商(研发单位):
太空探索技术公司
制造商所在国:
美国
使用方式:
暂无
卫星简介
Starlink 计划是 SpaceX 推出的全球卫星互联网项目,通过发射低轨道卫星,为全球尤其是偏远地区提供高速、低延迟的互联网服务。自 2019 年起,Starlink 已部署数千颗卫星,旨在缩小全球数字鸿沟,推动互联网普及。该项目还为军事、航空等行业提供通信支持,带来广泛经济效益。
2D轨道图
3D轨道图
轨道高度分析图
轨道倾角分析图
轨道综合分析图
查看轨道综合分析图